Starlink 4525

operational
NORAD ID: 53401 Int'l Des: 2022-097 Owner: SPXS Country: US Constellation: starlink
LEOCIRCULAR

About Starlink 4525

Description loading...

Live Position

Loading 3D Globe...

Upcoming Passes

Altitude History

Altitude vs Time

uPlot chart will show altitude changes over time

Two-Line Element Set

1 53401U 22097P 25301.53400161 .00001067 00000-0 85106-4 0 9992
2 53401 53.2194 357.3904 0001375 93.7996 266.3153 15.08843484178567
Epoch: Oct 28, 2025 • Age: 23 hours

Current Status

Altitude 540.1 km
Velocity 7.59 km/s
Sub-Earth Point 2.80°N, 44.83°W
Launch Date Aug 10, 2022
Age 3.2 years
Type internet

Technical Details

Classification Payload
Mass 297.00 kg
Dry Mass 275.00 kg
Total Mass 297.00 kg
Length 0.20 m
Diameter 2.80 m
Span 9.00 m
Shape Box + pan
Manufacturer SPXS
Bus Type Starlink
Phase Status In Orbit
Owner/State SPXS/US

Large Constellations

Loading constellations...